When you browse on this site, cookies collect data to enhance your experience and personalize the content and advertising you see.
Visit our Privacy Policy to learn more. By continuing to use the site, you agree to this use of cookies and data.
  • In Romania
  • List of Countries
  • For 7 days
  • Water Temperature
  • Satellite Maps
  • Weather Map
  • Weather Widgets
  • user-avatar
    Login

    Hourly Weather Ajuchitlan

    Today, 18 July, Thursday

    Time Temperature Precipitation Wind Pressure Humidity
    00:00 +24°C° 0.4 mm 1 mps 730 mmHg 93%
    01:00 +22°C° 0.4 mm 0 mps 729 mmHg 93%
    02:00 +22°C° 0.4 mm 0 mps 729 mmHg 94%
    03:00 +22°C° 0 mm 0 mps 729 mmHg 94%
    04:00 +21°C° 0 mm 0 mps 729 mmHg 94%
    05:00 +21°C° 0 mm 0 mps 729 mmHg 94%
    06:00 +23°C° 0 mm 0 mps 729 mmHg 91%
    07:00 +24°C° 0 mm 0 mps 729 mmHg 88%
    08:00 +26°C° 0 mm 0 mps 730 mmHg 84%
    09:00 +28°C° 0 mm 0 mps 730 mmHg 78%
    10:00 +29°C° 0 mm 0 mps 729 mmHg 72%
    11:00 +31°C° 0 mm 0 mps 729 mmHg 65%
    12:00 +31°C° 0.1 mm 0 mps 729 mmHg 63%
    13:00 +34°C° 0.1 mm 1 mps 728 mmHg 61%
    14:00 +34°C° 0.1 mm 1 mps 727 mmHg 60%
    15:00 +31°C° 0.3 mm 0 mps 727 mmHg 66%
    16:00 +30°C° 0.3 mm 0 mps 727 mmHg 72%
    17:00 +30°C° 0.3 mm 0 mps 727 mmHg 78%
    18:00 +28°C° 0.7 mm 0 mps 727 mmHg 81%
    19:00 +28°C° 0.7 mm 1 mps 728 mmHg 83%
    20:00 +26°C° 0.7 mm 1 mps 728 mmHg 86%
    21:00 +26°C° 0.7 mm 1 mps 729 mmHg 88%
    22:00 +25°C° 0.7 mm 1 mps 729 mmHg 90%
    23:00 +25°C° 0.7 mm 1 mps 729 mmHg 92%

    Tomorrow, 19 July, Friday

    Time Temperature Precipitation Wind Pressure Humidity
    00:00 +24°C° 1.7 mm 1 mps 729 mmHg 93%
    01:00 +24°C° 1.7 mm 1 mps 729 mmHg 94%
    02:00 +24°C° 1.7 mm 1 mps 728 mmHg 95%
    03:00 +22°C° 0.7 mm 0 mps 728 mmHg 95%
    04:00 +22°C° 0.7 mm 0 mps 728 mmHg 96%
    05:00 +22°C° 0.7 mm 0 mps 728 mmHg 96%
    06:00 +23°C° 0 mm 0 mps 728 mmHg 95%
    07:00 +23°C° 0 mm 0 mps 729 mmHg 95%
    08:00 +24°C° 0 mm 0 mps 729 mmHg 94%
    09:00 +25°C° 0.2 mm 0 mps 729 mmHg 88%
    10:00 +27°C° 0.2 mm 0 mps 729 mmHg 82%
    11:00 +31°C° 0.2 mm 1 mps 729 mmHg 76%
    12:00 +32°C° 0.3 mm 1 mps 728 mmHg 73%
    13:00 +32°C° 0.3 mm 1 mps 728 mmHg 70%
    14:00 +33°C° 0.3 mm 1 mps 727 mmHg 67%
    15:00 +32°C° 1.3 mm 1 mps 727 mmHg 73%
    16:00 +31°C° 1.3 mm 1 mps 727 mmHg 78%
    17:00 +30°C° 1.3 mm 1 mps 727 mmHg 84%
    18:00 +28°C° 1.5 mm 1 mps 727 mmHg 87%
    19:00 +27°C° 1.5 mm 1 mps 728 mmHg 91%
    20:00 +25°C° 1.5 mm 2 mps 728 mmHg 94%
    21:00 +25°C° 0.7 mm 2 mps 729 mmHg 94%
    22:00 +24°C° 0.7 mm 1 mps 729 mmHg 94%
    23:00 +24°C° 0.7 mm 1 mps 730 mmHg 94%

    Day after tomorrow, 20 July, Saturday

    Time Temperature Precipitation Wind Pressure Humidity
    00:00 +24°C° 0.6 mm 1 mps 729 mmHg 94%
    01:00 +24°C° 0.6 mm 1 mps 729 mmHg 94%
    02:00 +22°C° 0.6 mm 0 mps 729 mmHg 95%
    03:00 +21°C° 0.2 mm 0 mps 729 mmHg 95%
    04:00 +21°C° 0.2 mm 0 mps 729 mmHg 95%
    05:00 +21°C° 0.2 mm 0 mps 728 mmHg 95%
    06:00 +22°C° 0 mm 0 mps 729 mmHg 93%
    07:00 +23°C° 0 mm 0 mps 729 mmHg 91%
    08:00 +24°C° 0 mm 0 mps 730 mmHg 89%
    09:00 +26°C° 0.1 mm 0 mps 729 mmHg 83%
    10:00 +28°C° 0.1 mm 0 mps 729 mmHg 77%
    11:00 +29°C° 0.1 mm 0 mps 729 mmHg 71%
    12:00 +30°C° 0.4 mm 0 mps 728 mmHg 71%
    13:00 +30°C° 0.4 mm 0 mps 727 mmHg 70%
    14:00 +33°C° 0.4 mm 1 mps 727 mmHg 69%
    15:00 +31°C° 1.2 mm 1 mps 727 mmHg 75%
    16:00 +30°C° 1.2 mm 1 mps 726 mmHg 81%
    17:00 +28°C° 1.2 mm 1 mps 726 mmHg 87%
    18:00 +27°C° 0.8 mm 1 mps 727 mmHg 90%
    19:00 +24°C° 0.8 mm 0 mps 727 mmHg 92%
    20:00 +23°C° 0.8 mm 0 mps 728 mmHg 94%
    21:00 +23°C° 0.2 mm 0 mps 728 mmHg 94%
    22:00 +23°C° 0.2 mm 0 mps 729 mmHg 94%
    23:00 +25°C° 0.2 mm 1 mps 729 mmHg 94%

    21 July, Sunday

    Time Temperature Precipitation Wind Pressure Humidity
    00:00 +25°C° 0.5 mm 1 mps 729 mmHg 94%
    01:00 +24°C° 0.5 mm 1 mps 729 mmHg 93%
    02:00 +24°C° 0.5 mm 1 mps 728 mmHg 93%
    03:00 +24°C° 0.2 mm 1 mps 728 mmHg 93%
    04:00 +24°C° 0.2 mm 1 mps 728 mmHg 93%
    05:00 +23°C° 0.2 mm 1 mps 729 mmHg 93%
    06:00 +23°C° 0 mm 0 mps 729 mmHg 90%
    07:00 +24°C° 0 mm 0 mps 730 mmHg 87%
    08:00 +26°C° 0 mm 0 mps 730 mmHg 83%
    09:00 +27°C° 0.3 mm 0 mps 730 mmHg 80%
    10:00 +29°C° 0.3 mm 0 mps 730 mmHg 77%
    11:00 +32°C° 0.3 mm 1 mps 729 mmHg 73%
    12:00 +32°C° 0.5 mm 1 mps 729 mmHg 71%
    13:00 +31°C° 0.5 mm 0 mps 728 mmHg 69%
    14:00 +31°C° 0.5 mm 0 mps 727 mmHg 67%
    15:00 +30°C° 0.4 mm 0 mps 727 mmHg 71%
    16:00 +30°C° 0.4 mm 0 mps 727 mmHg 75%
    17:00 +29°C° 0.4 mm 0 mps 727 mmHg 79%
    18:00 +27°C° 0 mm 0 mps 727 mmHg 80%
    19:00 +28°C° 0 mm 1 mps 728 mmHg 81%
    20:00 +27°C° 0 mm 1 mps 728 mmHg 82%
    21:00 +26°C° 0.1 mm 1 mps 729 mmHg 83%
    22:00 +26°C° 0.1 mm 1 mps 729 mmHg 84%
    23:00 +25°C° 0.1 mm 1 mps 729 mmHg 86%

    22 July, Monday

    Time Temperature Precipitation Wind Pressure Humidity
    00:00 +25°C° 0.4 mm 1 mps 729 mmHg 87%
    01:00 +24°C° 0.4 mm 1 mps 729 mmHg 88%
    02:00 +24°C° 0.4 mm 1 mps 729 mmHg 89%
    03:00 +24°C° 0.2 mm 1 mps 729 mmHg 90%
    04:00 +23°C° 0.2 mm 1 mps 729 mmHg 91%
    05:00 +23°C° 0.2 mm 1 mps 729 mmHg 92%
    06:00 +25°C° 0.1 mm 1 mps 729 mmHg 89%
    07:00 +24°C° 0.1 mm 0 mps 729 mmHg 86%
    08:00 +26°C° 0.1 mm 0 mps 730 mmHg 83%
    09:00 +27°C° 0.1 mm 0 mps 730 mmHg 78%
    10:00 +29°C° 0.1 mm 0 mps 729 mmHg 73%
    11:00 +33°C° 0.1 mm 1 mps 729 mmHg 68%
    12:00 +33°C° 0.1 mm 1 mps 728 mmHg 66%
    13:00 +34°C° 0.1 mm 1 mps 728 mmHg 65%
    14:00 +34°C° 0.1 mm 1 mps 727 mmHg 64%
    15:00 +33°C° 0.3 mm 1 mps 727 mmHg 69%
    16:00 +31°C° 0.3 mm 0 mps 727 mmHg 74%
    17:00 +30°C° 0.3 mm 0 mps 727 mmHg 80%
    18:00 +30°C° 0.4 mm 1 mps 727 mmHg 81%
    19:00 +28°C° 0.4 mm 1 mps 728 mmHg 83%
    20:00 +27°C° 0.4 mm 2 mps 729 mmHg 85%
    21:00 +26°C° 0.2 mm 2 mps 729 mmHg 86%
    22:00 +26°C° 0.2 mm 2 mps 730 mmHg 86%
    23:00 +25°C° 0.2 mm 2 mps 730 mmHg 87%

    23 July, Tuesday

    Time Temperature Precipitation Wind Pressure Humidity
    00:00 +25°C° 0.8 mm 1 mps 730 mmHg 88%
    01:00 +24°C° 0.8 mm 1 mps 729 mmHg 90%
    02:00 +24°C° 0.8 mm 1 mps 729 mmHg 92%
    03:00 +24°C° 0.5 mm 1 mps 729 mmHg 93%
    04:00 +22°C° 0.5 mm 0 mps 729 mmHg 94%
    05:00 +22°C° 0.5 mm 0 mps 729 mmHg 95%
    06:00 +22°C° 0.2 mm 0 mps 730 mmHg 94%
    07:00 +23°C° 0.2 mm 0 mps 730 mmHg 93%
    08:00 +23°C° 0.2 mm 0 mps 731 mmHg 92%
    09:00 +24°C° 0 mm 0 mps 730 mmHg 89%
    10:00 +25°C° 0 mm 0 mps 730 mmHg 86%
    11:00 +26°C° 0 mm 0 mps 730 mmHg 82%
    12:00 +27°C° 0.1 mm 0 mps 729 mmHg 78%
    13:00 +29°C° 0.1 mm 0 mps 728 mmHg 73%
    14:00 +30°C° 0.1 mm 0 mps 728 mmHg 68%
    15:00 +29°C° 0.2 mm 0 mps 728 mmHg 73%
    16:00 +28°C° 0.2 mm 0 mps 728 mmHg 77%
    17:00 +28°C° 0.2 mm 0 mps 727 mmHg 81%
    18:00 +28°C° 0.2 mm 1 mps 728 mmHg 83%
    19:00 +27°C° 0.2 mm 1 mps 728 mmHg 85%
    20:00 +26°C° 0.2 mm 1 mps 729 mmHg 87%
    21:00 +25°C° 0.1 mm 1 mps 729 mmHg 88%
    22:00 +25°C° 0.1 mm 1 mps 729 mmHg 88%
    23:00 +25°C° 0.1 mm 1 mps 729 mmHg 89%
    Show more